AAL1709 KMSP-KCID

Flight info

Callsign AAL1709
Flight time 0h 43m
Altitude 27000
Route RST1 ALO CID
Aircraft A319/M-SDE3FGHIRWY/LB1

Departure

Time 2026-04-16 22:21
Airport Minneapolis–Saint Paul International Airport / Wold–Chamberlain Field (KMSP)

Arrival

Time 2026-04-16 23:04
Airport The Eastern Iowa Airport (KCID)
Time Latitude Longitude Altitude Speed Heading
2026-04-16 22:03 44.88312 -93.21505 835 ft 0 kts 18°
2026-04-16 22:10 44.88300 -93.21510 824 ft 2 kts 18°
2026-04-16 22:10 44.88286 -93.21517 820 ft 2 kts 17°
2026-04-16 22:11 44.88271 -93.21523 826 ft 2 kts 14°
2026-04-16 22:11 44.88255 -93.21529 823 ft 2 kts 19°
2026-04-16 22:11 44.88240 -93.21536 826 ft 2 kts 13°
2026-04-16 22:11 44.88225 -93.21542 823 ft 2 kts 20°
2026-04-16 22:12 44.88210 -93.21550 824 ft 2 kts 29°
2026-04-16 22:12 44.88197 -93.21562 826 ft 2 kts 61°
2026-04-16 22:12 44.88193 -93.21584 826 ft 2 kts 109°
2026-04-16 22:12 44.88202 -93.21602 826 ft 2 kts 120°
2026-04-16 22:13 44.88207 -93.21618 824 ft 0 kts 127°
2026-04-16 22:13 44.88204 -93.21611 826 ft 3 kts 127°
2026-04-16 22:13 44.88201 -93.21606 826 ft 0 kts 127°
2026-04-16 22:15 44.88199 -93.21602 826 ft 2 kts 129°
2026-04-16 22:16 44.88188 -93.21579 823 ft 4 kts 119°
2026-04-16 22:16 44.88167 -93.21527 826 ft 8 kts 121°
2026-04-16 22:16 44.88120 -93.21469 825 ft 10 kts 159°
2026-04-16 22:16 44.88074 -93.21472 827 ft 3 kts 276°
2026-04-16 22:17 44.88084 -93.21510 827 ft 5 kts 298°
2026-04-16 22:17 44.88107 -93.21563 827 ft 8 kts 301°
2026-04-16 22:17 44.88139 -93.21638 828 ft 10 kts 301°
2026-04-16 22:17 44.88181 -93.21735 824 ft 13 kts 301°
2026-04-16 22:18 44.88231 -93.21851 829 ft 14 kts 302°
2026-04-16 22:18 44.88287 -93.21978 828 ft 16 kts 301°
2026-04-16 22:18 44.88348 -93.22119 831 ft 17 kts 301°
2026-04-16 22:18 44.88409 -93.22260 832 ft 18 kts 300°
2026-04-16 22:19 44.88510 -93.22331 827 ft 19 kts 35°
2026-04-16 22:19 44.88608 -93.22192 827 ft 21 kts 44°
2026-04-16 22:19 44.88717 -93.22037 825 ft 23 kts 45°
2026-04-16 22:19 44.88836 -93.21869 825 ft 25 kts 45°
2026-04-16 22:20 44.88959 -93.21697 826 ft 22 kts 45°
2026-04-16 22:20 44.89039 -93.21565 832 ft 17 kts 70°
2026-04-16 22:20 44.89003 -93.21426 833 ft 15 kts 121°
2026-04-16 22:20 44.88853 -93.21080 831 ft 95 kts 122°
2026-04-16 22:21 44.88322 -93.19861 979 ft 178 kts 126°
2026-04-16 22:21 44.87681 -93.18292 1861 ft 195 kts 124°
2026-04-16 22:21 44.86954 -93.16522 2786 ft 223 kts 124°
2026-04-16 22:21 44.86161 -93.14629 3823 ft 215 kts 124°
2026-04-16 22:22 44.85411 -93.12824 4809 ft 219 kts 125°
2026-04-16 22:22 44.84619 -93.10939 5807 ft 229 kts 127°
2026-04-16 22:22 44.83764 -93.08945 6564 ft 245 kts 127°
2026-04-16 22:22 44.82872 -93.06879 7064 ft 251 kts 127°
2026-04-16 22:23 44.81964 -93.04763 7568 ft 255 kts 126°
2026-04-16 22:23 44.81039 -93.02601 8085 ft 260 kts 125°
2026-04-16 22:23 44.80101 -93.00399 8625 ft 264 kts 126°
2026-04-16 22:23 44.79161 -92.98198 9152 ft 268 kts 126°
2026-04-16 22:24 44.78191 -92.95925 9703 ft 274 kts 125°
2026-04-16 22:24 44.77144 -92.93622 10206 ft 276 kts 134°
2026-04-16 22:24 44.75925 -92.92127 10641 ft 270 kts 155°
2026-04-16 22:26 44.75220 -92.91650 10854 ft 266 kts 167°
2026-04-16 22:27 44.73436 -92.91241 11373 ft 257 kts 190°
2026-04-16 22:27 44.71721 -92.91806 11896 ft 250 kts 211°
2026-04-16 22:27 44.70328 -92.93175 12434 ft 244 kts 231°
2026-04-16 22:27 44.69379 -92.95206 12983 ft 260 kts 251°
2026-04-16 22:28 44.68702 -92.97699 13554 ft 287 kts 253°
2026-04-16 22:28 44.67968 -93.00454 14069 ft 312 kts 252°
2026-04-16 22:28 44.67176 -93.03390 14575 ft 333 kts 252°
2026-04-16 22:28 44.66326 -93.06513 15092 ft 346 kts 251°
2026-04-16 22:29 44.65468 -93.09640 15605 ft 350 kts 251°
2026-04-16 22:29 44.64582 -93.12848 16133 ft 354 kts 250°
2026-04-16 22:29 44.63341 -93.15860 16670 ft 363 kts 230°
2026-04-16 22:29 44.61250 -93.17909 17219 ft 376 kts 206°
2026-04-16 22:30 44.58654 -93.18538 17776 ft 390 kts 181°
2026-04-16 22:30 44.56002 -93.17583 18297 ft 404 kts 157°
2026-04-16 22:30 44.53727 -93.15279 18786 ft 413 kts 141°
2026-04-16 22:30 44.51561 -93.12597 19299 ft 416 kts 141°
2026-04-16 22:31 44.49398 -93.09914 19805 ft 419 kts 142°
2026-04-16 22:31 44.47159 -93.07247 20321 ft 420 kts 148°
2026-04-16 22:31 44.44640 -93.05272 20849 ft 419 kts 157°
2026-04-16 22:31 44.42014 -93.03434 21391 ft 422 kts 158°
2026-04-16 22:32 44.39381 -93.01617 21936 ft 425 kts 158°
2026-04-16 22:32 44.36705 -92.99783 22482 ft 429 kts 158°
2026-04-16 22:32 44.34024 -92.97943 23050 ft 433 kts 158°
2026-04-16 22:32 44.31304 -92.96068 23591 ft 437 kts 158°
2026-04-16 22:33 44.28569 -92.94177 24088 ft 440 kts 158°
2026-04-16 22:33 44.25853 -92.92296 24580 ft 443 kts 158°
2026-04-16 22:33 44.23087 -92.90378 25082 ft 446 kts 158°
2026-04-16 22:33 44.20287 -92.88440 25594 ft 449 kts 158°
2026-04-16 22:34 44.17478 -92.86504 26108 ft 452 kts 158°
2026-04-16 22:34 44.14640 -92.84555 26621 ft 456 kts 159°
2026-04-16 22:34 44.11787 -92.82595 26824 ft 459 kts 159°
2026-04-16 22:34 44.08924 -92.80627 26869 ft 459 kts 159°
2026-04-16 22:35 44.06056 -92.78651 26868 ft 459 kts 159°
2026-04-16 22:35 44.03203 -92.76690 26870 ft 459 kts 159°
2026-04-16 22:35 44.00371 -92.74753 26873 ft 458 kts 159°
2026-04-16 22:35 43.97509 -92.72798 26871 ft 459 kts 158°
2026-04-16 22:36 43.94650 -92.70842 26877 ft 459 kts 158°
2026-04-16 22:36 43.91797 -92.68886 26876 ft 459 kts 158°
2026-04-16 22:36 43.88936 -92.66931 26874 ft 459 kts 158°
2026-04-16 22:36 43.86065 -92.64976 26876 ft 459 kts 158°
2026-04-16 22:37 43.83199 -92.63028 26873 ft 459 kts 158°
2026-04-16 22:37 43.80328 -92.61080 26870 ft 459 kts 159°
2026-04-16 22:37 43.77368 -92.59578 26856 ft 450 kts 173°
2026-04-16 22:37 43.74320 -92.58990 26862 ft 447 kts 178°
2026-04-16 22:38 43.71198 -92.58484 26866 ft 447 kts 178°
2026-04-16 22:38 43.68151 -92.58005 26868 ft 447 kts 178°
2026-04-16 22:38 43.65066 -92.57521 26869 ft 447 kts 178°
2026-04-16 22:38 43.61966 -92.57027 26872 ft 447 kts 178°
2026-04-16 22:39 43.58889 -92.56530 26854 ft 447 kts 178°
2026-04-16 22:39 43.55802 -92.56026 26858 ft 447 kts 178°
2026-04-16 22:39 43.52702 -92.55515 26859 ft 447 kts 177°
2026-04-16 22:39 43.49618 -92.55003 26861 ft 447 kts 177°
2026-04-16 22:40 43.46571 -92.54499 26863 ft 447 kts 177°
2026-04-16 22:40 43.43489 -92.53989 26866 ft 448 kts 177°
2026-04-16 22:40 43.40391 -92.53479 26867 ft 448 kts 178°
2026-04-16 22:40 43.37306 -92.52981 26858 ft 447 kts 177°
2026-04-16 22:41 43.34211 -92.52485 26859 ft 447 kts 177°
2026-04-16 22:41 43.31112 -92.51990 26859 ft 447 kts 177°
2026-04-16 22:41 43.28028 -92.51497 26863 ft 447 kts 177°
2026-04-16 22:41 43.24933 -92.50996 26864 ft 447 kts 177°
2026-04-16 22:42 43.21845 -92.50491 26865 ft 447 kts 177°
2026-04-16 22:42 43.18747 -92.49986 26855 ft 447 kts 177°
2026-04-16 22:42 43.15663 -92.49488 26857 ft 447 kts 177°
2026-04-16 22:42 43.12607 -92.48999 26859 ft 447 kts 177°
2026-04-16 22:43 43.09542 -92.48508 26857 ft 447 kts 177°
2026-04-16 22:43 43.06424 -92.48006 26840 ft 448 kts 177°
2026-04-16 22:43 43.03331 -92.47507 26589 ft 448 kts 177°
2026-04-16 22:43 43.00252 -92.47008 26337 ft 447 kts 177°
2026-04-16 22:44 42.97168 -92.46511 26046 ft 444 kts 177°
2026-04-16 22:44 42.94138 -92.46022 25794 ft 443 kts 177°
2026-04-16 22:44 42.91046 -92.45528 25560 ft 441 kts 177°
2026-04-16 22:44 42.88040 -92.45048 25318 ft 440 kts 177°
2026-04-16 22:45 42.85009 -92.44567 25076 ft 438 kts 177°
2026-04-16 22:45 42.81986 -92.44084 24841 ft 437 kts 177°
2026-04-16 22:45 42.78969 -92.43599 24606 ft 436 kts 177°
2026-04-16 22:45 42.75960 -92.43118 24374 ft 435 kts 177°
2026-04-16 22:46 42.72962 -92.42641 24142 ft 433 kts 177°
2026-04-16 22:46 42.69972 -92.42168 23912 ft 432 kts 177°
2026-04-16 22:46 42.67000 -92.41696 23678 ft 431 kts 177°
2026-04-16 22:46 42.64027 -92.41222 23450 ft 430 kts 176°
2026-04-16 22:47 42.61099 -92.40754 23183 ft 428 kts 176°
2026-04-16 22:47 42.58146 -92.40284 22906 ft 427 kts 176°
2026-04-16 22:47 42.55251 -92.39399 22633 ft 431 kts 162°
2026-04-16 22:47 42.52531 -92.37655 22367 ft 432 kts 153°
2026-04-16 22:48 42.49991 -92.35489 22106 ft 432 kts 148°
2026-04-16 22:48 42.47566 -92.33073 21844 ft 431 kts 145°
2026-04-16 22:48 42.45213 -92.30597 21588 ft 426 kts 144°
2026-04-16 22:48 42.42887 -92.28172 21299 ft 417 kts 145°
2026-04-16 22:49 42.40606 -92.25897 20802 ft 409 kts 147°
2026-04-16 22:49 42.38178 -92.23923 20294 ft 397 kts 160°
2026-04-16 22:49 42.35584 -92.23057 19823 ft 384 kts 176°
2026-04-16 22:49 42.32958 -92.23135 19338 ft 375 kts 188°
2026-04-16 22:50 42.30369 -92.23479 18865 ft 372 kts 189°
2026-04-16 22:50 42.27809 -92.23830 18337 ft 369 kts 189°
2026-04-16 22:50 42.25260 -92.24185 17565 ft 369 kts 189°
2026-04-16 22:50 42.22723 -92.24545 16695 ft 362 kts 189°
2026-04-16 22:51 42.20251 -92.24895 15856 ft 353 kts 188°
2026-04-16 22:51 42.17816 -92.24945 15044 ft 347 kts 181°
2026-04-16 22:51 42.15458 -92.24865 14258 ft 342 kts 181°
2026-04-16 22:51 42.13089 -92.24785 13453 ft 337 kts 181°
2026-04-16 22:52 42.10758 -92.24708 12586 ft 332 kts 181°
2026-04-16 22:52 42.08489 -92.24623 11763 ft 328 kts 181°
2026-04-16 22:52 42.06221 -92.24524 10945 ft 323 kts 181°
2026-04-16 22:52 42.03998 -92.24299 10150 ft 322 kts 171°
2026-04-16 22:53 42.01943 -92.23098 9328 ft 323 kts 148°
2026-04-16 22:53 42.00155 -92.21313 8487 ft 319 kts 144°
2026-04-16 22:53 41.98450 -92.19508 7675 ft 314 kts 144°
2026-04-16 22:53 41.96759 -92.17691 6867 ft 309 kts 144°
2026-04-16 22:54 41.95099 -92.15882 6065 ft 304 kts 144°
2026-04-16 22:54 41.93483 -92.14104 5368 ft 295 kts 143°
2026-04-16 22:54 41.91944 -92.12430 5160 ft 275 kts 144°
2026-04-16 22:54 41.90525 -92.10889 4973 ft 251 kts 144°
2026-04-16 22:55 41.89219 -92.09470 4807 ft 230 kts 144°
2026-04-16 22:55 41.88087 -92.08112 4647 ft 216 kts 134°
2026-04-16 22:55 41.87327 -92.06413 4506 ft 213 kts 114°
2026-04-16 22:55 41.87043 -92.04463 4404 ft 215 kts 94°
2026-04-16 22:56 41.87195 -92.02447 4307 ft 218 kts 84°
2026-04-16 22:56 41.87480 -92.00450 4270 ft 219 kts 81°
2026-04-16 22:56 41.87782 -91.98446 4195 ft 219 kts 82°
2026-04-16 22:56 41.88021 -91.96443 4086 ft 217 kts 87°
2026-04-16 22:57 41.88178 -91.94437 3942 ft 216 kts 89°
2026-04-16 22:57 41.88297 -91.92459 3801 ft 215 kts 89°
2026-04-16 22:57 41.88417 -91.90463 3587 ft 214 kts 89°
2026-04-16 22:57 41.88503 -91.88482 3374 ft 211 kts 90°
2026-04-16 22:58 41.88537 -91.86544 3144 ft 202 kts 92°
2026-04-16 22:58 41.88558 -91.84748 3035 ft 181 kts 91°
2026-04-16 22:58 41.88604 -91.83133 2890 ft 167 kts 91°
2026-04-16 22:58 41.88619 -91.81588 2664 ft 162 kts 92°
2026-04-16 22:59 41.88646 -91.80114 2424 ft 154 kts 93°
2026-04-16 22:59 41.88618 -91.78717 2183 ft 147 kts 97°
2026-04-16 22:59 41.88551 -91.77372 1975 ft 143 kts 97°
2026-04-16 22:59 41.88525 -91.76054 1709 ft 143 kts 95°
2026-04-16 23:00 41.88503 -91.74639 1463 ft 175 kts 95°
2026-04-16 23:00 41.88482 -91.73053 1714 ft 158 kts 94°
2026-04-16 23:00 41.88358 -91.71566 1794 ft 160 kts 117°
2026-04-16 23:00 41.87558 -91.70588 1787 ft 161 kts 165°
2026-04-16 23:01 41.86481 -91.70771 1829 ft 163 kts 210°
2026-04-16 23:01 41.85846 -91.72025 1908 ft 171 kts 257°
2026-04-16 23:01 41.85812 -91.73631 2006 ft 173 kts 266°
2026-04-16 23:01 41.85790 -91.75238 1988 ft 171 kts 265°
2026-04-16 23:02 41.85947 -91.76790 2060 ft 176 kts 288°
2026-04-16 23:02 41.86748 -91.78033 1974 ft 178 kts 328°
2026-04-16 23:02 41.87876 -91.78043 1846 ft 168 kts 33°
2026-04-16 23:02 41.88456 -91.76662 1552 ft 170 kts 88°
2026-04-16 23:03 41.88490 -91.75124 1259 ft 160 kts 92°
2026-04-16 23:03 41.88486 -91.73714 1067 ft 139 kts 95°
2026-04-16 23:03 41.88463 -91.72497 896 ft 121 kts 95°
2026-04-16 23:03 41.88433 -91.71530 866 ft 91 kts 90°
2026-04-16 23:04 41.88437 -91.70781 871 ft 70 kts 90°
2026-04-16 23:04 41.88440 -91.70393 874 ft 22 kts 90°
2026-04-16 23:04 41.88442 -91.70185 874 ft 21 kts 62°
2026-04-16 23:04 41.88569 -91.70150 874 ft 20 kts 359°
2026-04-16 23:05 41.88693 -91.70203 873 ft 20 kts 312°
2026-04-16 23:05 41.88760 -91.70329 873 ft 18 kts 359°
2026-04-16 23:05 41.88818 -91.70270 873 ft 0 kts 43°
2026-04-16 23:05 41.88825 -91.70261 873 ft 3 kts 47°
2026-04-16 23:06 41.88828 -91.70232 873 ft 4 kts 95°
2026-04-16 23:06 41.88819 -91.70193 873 ft 2 kts 111°
2026-04-16 23:06 41.88820 -91.70194 873 ft 3 kts 107°
2026-04-16 23:06 41.88821 -91.70200 873 ft 1 kts 106°
2026-04-16 23:07 41.88820 -91.70193 873 ft 0 kts 106°